• In Netherlands
  • List of Countries
  • For 7 days
  • Water Temperature
  • Satellite Maps
  • Weather Map
  • Weather Widgets
  • user-avatar
    Login

    Hourly Weather Belmopan

    Today, 19 November, Sunday

    Time Temperature Precipitation Wind Pressure Humidity
    00:00 +20°C° 0 mm 0 mps 752 mmHg 94%
    01:00 +19°C° 0 mm 0 mps 752 mmHg 94%
    02:00 +19°C° 0 mm 0 mps 752 mmHg 94%
    03:00 +19°C° 0 mm 0 mps 752 mmHg 93%
    04:00 +21°C° 0 mm 1 mps 752 mmHg 93%
    05:00 +21°C° 0 mm 1 mps 752 mmHg 93%
    06:00 +21°C° 0 mm 1 mps 753 mmHg 96%
    07:00 +23°C° 0.3 mm 1 mps 753 mmHg 91%
    08:00 +25°C° 0.3 mm 1 mps 753 mmHg 87%
    09:00 +27°C° 0.3 mm 1 mps 754 mmHg 82%
    10:00 +27°C° 1.3 mm 1 mps 753 mmHg 84%
    11:00 +27°C° 1.3 mm 1 mps 753 mmHg 87%
    12:00 +27°C° 1.3 mm 1 mps 753 mmHg 89%
    13:00 +27°C° 1.3 mm 1 mps 753 mmHg 90%
    14:00 +27°C° 1.3 mm 1 mps 752 mmHg 90%
    15:00 +27°C° 1.3 mm 1 mps 752 mmHg 91%
    16:00 +26°C° 0.7 mm 1 mps 752 mmHg 93%
    17:00 +25°C° 0.7 mm 1 mps 752 mmHg 94%
    18:00 +21°C° 0.7 mm 0 mps 752 mmHg 96%
    19:00 +21°C° 0.1 mm 0 mps 753 mmHg 96%
    20:00 +21°C° 0.1 mm 0 mps 753 mmHg 96%
    21:00 +21°C° 0.1 mm 0 mps 754 mmHg 96%
    22:00 +22°C° 0.1 mm 1 mps 754 mmHg 96%
    23:00 +22°C° 0.1 mm 1 mps 754 mmHg 97%

    Tomorrow, 20 November, Monday

    Time Temperature Precipitation Wind Pressure Humidity
    00:00 +22°C° 0.1 mm 1 mps 754 mmHg 97%
    01:00 +22°C° 0 mm 1 mps 754 mmHg 98%
    02:00 +22°C° 0 mm 1 mps 754 mmHg 98%
    03:00 +21°C° 0 mm 1 mps 754 mmHg 98%
    04:00 +21°C° 0.1 mm 1 mps 754 mmHg 99%
    05:00 +21°C° 0.1 mm 1 mps 754 mmHg 99%
    06:00 +21°C° 0.1 mm 1 mps 754 mmHg 99%
    07:00 +22°C° 0.1 mm 1 mps 755 mmHg 95%
    08:00 +23°C° 0.1 mm 1 mps 755 mmHg 92%
    09:00 +24°C° 0.1 mm 1 mps 755 mmHg 88%
    10:00 +26°C° 0.1 mm 1 mps 755 mmHg 80%
    11:00 +28°C° 0.1 mm 1 mps 755 mmHg 71%
    12:00 +29°C° 0.1 mm 1 mps 754 mmHg 63%
    13:00 +30°C° 0.3 mm 1 mps 754 mmHg 62%
    14:00 +30°C° 0.3 mm 1 mps 753 mmHg 62%
    15:00 +30°C° 0.3 mm 1 mps 752 mmHg 61%
    16:00 +28°C° 0.1 mm 1 mps 752 mmHg 68%
    17:00 +24°C° 0.1 mm 0 mps 752 mmHg 75%
    18:00 +23°C° 0.1 mm 0 mps 752 mmHg 82%
    19:00 +22°C° 0 mm 0 mps 753 mmHg 85%
    20:00 +21°C° 0 mm 0 mps 753 mmHg 88%
    21:00 +21°C° 0 mm 0 mps 753 mmHg 91%
    22:00 +20°C° 0 mm 0 mps 753 mmHg 92%
    23:00 +20°C° 0 mm 0 mps 753 mmHg 93%

    Day after tomorrow, 21 November, Tuesday

    Time Temperature Precipitation Wind Pressure Humidity
    00:00 +22°C° 0 mm 1 mps 753 mmHg 95%
    01:00 +22°C° 0 mm 1 mps 753 mmHg 95%
    02:00 +22°C° 0 mm 1 mps 753 mmHg 95%
    03:00 +22°C° 0 mm 1 mps 752 mmHg 95%
    04:00 +21°C° 0 mm 1 mps 752 mmHg 96%
    05:00 +21°C° 0 mm 1 mps 752 mmHg 96%
    06:00 +21°C° 0 mm 1 mps 752 mmHg 97%
    07:00 +23°C° 0 mm 1 mps 753 mmHg 87%
    08:00 +26°C° 0 mm 1 mps 753 mmHg 77%
    09:00 +26°C° 0 mm 0 mps 754 mmHg 67%
    10:00 +28°C° 0 mm 0 mps 753 mmHg 62%
    11:00 +29°C° 0 mm 0 mps 753 mmHg 56%
    12:00 +32°C° 0 mm 1 mps 752 mmHg 51%
    13:00 +32°C° 0.1 mm 1 mps 751 mmHg 56%
    14:00 +31°C° 0.1 mm 1 mps 751 mmHg 60%
    15:00 +30°C° 0.1 mm 1 mps 750 mmHg 65%
    16:00 +28°C° 0.1 mm 1 mps 750 mmHg 73%
    17:00 +26°C° 0.1 mm 1 mps 751 mmHg 82%
    18:00 +25°C° 0.1 mm 1 mps 751 mmHg 90%
    19:00 +24°C° 0 mm 1 mps 751 mmHg 92%
    20:00 +24°C° 0 mm 1 mps 752 mmHg 95%
    21:00 +21°C° 0 mm 0 mps 752 mmHg 97%
    22:00 +21°C° 0 mm 0 mps 752 mmHg 97%
    23:00 +21°C° 0 mm 0 mps 752 mmHg 97%

    22 November, Wednesday

    Time Temperature Precipitation Wind Pressure Humidity
    00:00 +21°C° 0 mm 0 mps 752 mmHg 98%
    01:00 +20°C° 0 mm 0 mps 752 mmHg 98%
    02:00 +20°C° 0 mm 0 mps 752 mmHg 98%
    03:00 +20°C° 0 mm 0 mps 751 mmHg 98%
    04:00 +20°C° 0 mm 0 mps 752 mmHg 98%
    05:00 +20°C° 0 mm 0 mps 752 mmHg 98%
    06:00 +20°C° 0 mm 0 mps 752 mmHg 98%
    07:00 +22°C° 0 mm 0 mps 753 mmHg 88%
    08:00 +24°C° 0 mm 0 mps 753 mmHg 78%
    09:00 +27°C° 0 mm 0 mps 754 mmHg 67%
    10:00 +28°C° 0.2 mm 0 mps 753 mmHg 65%
    11:00 +31°C° 0.2 mm 1 mps 753 mmHg 62%
    12:00 +32°C° 0.2 mm 1 mps 752 mmHg 60%
    13:00 +31°C° 0.6 mm 1 mps 751 mmHg 63%
    14:00 +30°C° 0.6 mm 1 mps 751 mmHg 67%
    15:00 +30°C° 0.6 mm 1 mps 750 mmHg 71%
    16:00 +28°C° 0.8 mm 1 mps 751 mmHg 79%
    17:00 +26°C° 0.8 mm 1 mps 751 mmHg 87%
    18:00 +24°C° 0.8 mm 1 mps 752 mmHg 95%
    19:00 +23°C° 0.4 mm 1 mps 752 mmHg 96%
    20:00 +23°C° 0.4 mm 1 mps 753 mmHg 97%
    21:00 +22°C° 0.4 mm 1 mps 754 mmHg 98%
    22:00 +22°C° 0 mm 1 mps 754 mmHg 98%
    23:00 +22°C° 0 mm 1 mps 754 mmHg 99%

    23 November, Thursday

    Time Temperature Precipitation Wind Pressure Humidity
    00:00 +22°C° 0 mm 1 mps 753 mmHg 99%
    01:00 +21°C° 0 mm 1 mps 753 mmHg 99%
    02:00 +20°C° 0 mm 2 mps 753 mmHg 99%
    03:00 +20°C° 0 mm 2 mps 753 mmHg 99%
    04:00 +20°C° 0 mm 2 mps 753 mmHg 98%
    05:00 +20°C° 0 mm 2 mps 753 mmHg 98%
    06:00 +20°C° 0 mm 2 mps 754 mmHg 98%
    07:00 +21°C° 0 mm 2 mps 754 mmHg 92%
    08:00 +23°C° 0 mm 2 mps 755 mmHg 85%
    09:00 +25°C° 0 mm 3 mps 755 mmHg 79%
    10:00 +26°C° 0 mm 3 mps 754 mmHg 73%
    11:00 +27°C° 0 mm 2 mps 754 mmHg 68%
    12:00 +27°C° 0 mm 2 mps 753 mmHg 62%
    13:00 +28°C° 0 mm 2 mps 752 mmHg 59%
    14:00 +29°C° 0 mm 2 mps 752 mmHg 56%
    15:00 +29°C° 0 mm 2 mps 751 mmHg 53%
    16:00 +27°C° 0 mm 2 mps 752 mmHg 62%
    17:00 +26°C° 0 mm 1 mps 752 mmHg 70%
    18:00 +24°C° 0 mm 1 mps 752 mmHg 79%
    19:00 +23°C° 0 mm 1 mps 753 mmHg 83%
    20:00 +23°C° 0 mm 1 mps 754 mmHg 86%
    21:00 +22°C° 0 mm 1 mps 754 mmHg 90%
    22:00 +22°C° 0 mm 1 mps 754 mmHg 92%
    23:00 +21°C° 0 mm 1 mps 754 mmHg 93%

    24 November, Friday

    Time Temperature Precipitation Wind Pressure Humidity
    00:00 +21°C° 0 mm 1 mps 754 mmHg 95%
    01:00 +21°C° 0 mm 1 mps 754 mmHg 95%
    02:00 +20°C° 0 mm 1 mps 754 mmHg 96%
    03:00 +20°C° 0 mm 1 mps 753 mmHg 97%
    04:00 +20°C° 0 mm 1 mps 754 mmHg 97%
    05:00 +19°C° 0 mm 1 mps 754 mmHg 97%
    06:00 +19°C° 0 mm 1 mps 754 mmHg 98%
    07:00 +21°C° 0 mm 1 mps 755 mmHg 88%
    08:00 +23°C° 0 mm 1 mps 755 mmHg 79%
    09:00 +25°C° 0 mm 2 mps 756 mmHg 69%
    10:00 +26°C° 0 mm 2 mps 755 mmHg 65%
    11:00 +27°C° 0 mm 2 mps 755 mmHg 61%
    12:00 +28°C° 0 mm 2 mps 754 mmHg 57%
    13:00 +28°C° 0.3 mm 1 mps 754 mmHg 62%
    14:00 +27°C° 0.3 mm 1 mps 753 mmHg 67%
    15:00 +27°C° 0.3 mm 1 mps 752 mmHg 73%
    16:00 +25°C° 0.1 mm 1 mps 753 mmHg 78%
    17:00 +24°C° 0.1 mm 1 mps 753 mmHg 84%
    18:00 +21°C° 0.1 mm 0 mps 753 mmHg 90%
    19:00 +22°C° 0.1 mm 1 mps 754 mmHg 93%
    20:00 +22°C° 0.1 mm 1 mps 755 mmHg 95%
    21:00 +21°C° 0.1 mm 1 mps 755 mmHg 98%
    22:00 +21°C° 0.1 mm 1 mps 755 mmHg 98%
    23:00 +21°C° 0.1 mm 1 mps 755 mmHg 98%
    Show more